Вернуться в каталог

STARLINK-35692

АктивенСвязьVLEO
NORAD 66513·PAYLOAD·🇺🇸 United States

Запущен Nov 15, 2025 с Cape Canaveral Space Force Station

Loading…

Ближайшие Пролёты (ближайшие 24 часа)

TLE

СвежийSource: CelesTrak SupGP

Эпоха: Sep 15, 2026, 02:47 UTC

1 66513C 25263AE  26258.11645833  .00026157  00000+0  94723-3 0  2589
2 66513  43.0037   1.0668 0001764 264.5478 231.8232 15.27571600    11

Отслеживайте STARLINK-35692 в реальном времени с AllMySat

Download on the App Store